星链-32639 (STARLINK-32639)

导读

STARLINK-32639是美国SpaceX公司于2024年11月30日发射的星链系列低轨通信卫星,隶属于全球规模最大的卫星互联网星座Starlink。星链星座计划部署数万颗低轨卫星,该星采用平板设计,配备霍尔推进器与星间激光链路,工作于Ku/Ka频段,可提供高速低延迟互联网服务,填补地面网络覆盖盲区。卫星设计寿命约5-7年,退役后将主动离轨再入大气层销毁,减少太空碎片风险。

基本信息
目录编号:
62153
目录名称:
STARLINK-32639
国际标识:
2024-224Q
轨道中心:
EARTH
卫星名称:
星链-32639
卫星全名:
星链-32639 (STARLINK-32639)
卫星状态:
在轨 (已飞行643 天)
发射日期:
2024-11-30 UTC
国别 :
美国 (US)
星等 :
--
轨道信息
数据来源 国际轨道数据
星历时间: 2026-09-04T15:10:15+0800
13小时前
查看轨道信息
半长轴: 6861.149km
偏心率: 0.0001341
轨道倾角: 42.999°
近地点辐角 266.950°
升交点赤经 229.612°
平近点角 93.120°
近地点: 482.091km
远地点: 483.933km
周期: 94.266分钟
每日圈数: 15.275926
详细信息
固有亮度:
5
最大亮度:
2.5
卫星平台:
Starlink V1.0
覆盖范围:
全球
运营商:
太空探索技术公司
运营商所在国:
美国
制造商(研发单位):
太空探索技术公司
制造商所在国:
美国
使用方式:
暂无
卫星简介
Starlink 计划是 SpaceX 推出的全球卫星互联网项目,通过发射低轨道卫星,为全球尤其是偏远地区提供高速、低延迟的互联网服务。自 2019 年起,Starlink 已部署数千颗卫星,旨在缩小全球数字鸿沟,推动互联网普及。该项目还为军事、航空等行业提供通信支持,带来广泛经济效益。
2D轨道图
3D轨道图
轨道高度分析图
轨道倾角分析图
轨道综合分析图
查看轨道综合分析图
交会数据列表
事件ID 空间交会对象 最接近时刻(TCA) 交会距离 交会风险概率(CRP) 交会风险指数(CRI) 操作
CDM_260905-062806-215306-453021
2026-09-05T
06:28:33+0000
0.629 km
远距离
1.1016E-4 高风险 0.76
CDM_260907-045105-536106-215321
2026-09-07T
04:51:36+0000
0.706 km
远距离
6.15922E-5 中风险 0.71
CDM_260906-192706-215306-257121
2026-09-06T
19:27:17+0000
1.273 km
极远距离
8.652564E-6 低风险 0.54
CDM_260906-175306-215306-257121
2026-09-06T
17:53:07+0000
1.561 km
极远距离
4.398216E-6 低风险 0.48
CDM_260907-031705-536106-215321
2026-09-07T
03:17:26+0000
1.667 km
极远距离
3.562378E-6 低风险 0.46
CDM_260907-053906-215306-257121
2026-09-07T
05:39:18+0000
2.309 km
极远距离
1.576343E-6 低风险 0.39
CDM_260907-033805-598906-215321
2026-09-07T
03:38:52+0000
2.270 km
极远距离
1.453509E-6 低风险 0.38